When you browse on this site, cookies collect data to enhance your experience and personalize the content and advertising you see.
Visit our Privacy Policy to learn more. By continuing to use the site, you agree to this use of cookies and data.
  • In Czech Republic
  • List of Countries
  • For 7 days
  • Water Temperature
  • Weather Map
  • Weather Widgets
  • user-avatar
    Login

    Hourly Weather Los Santos

    Today, 22 November, Friday

    Time Temperature Precipitation Wind Pressure Humidity
    00:00 +17°C° 0.5 mm 0 mps 648 mmHg 93%
    01:00 +17°C° 0 mm 0 mps 648 mmHg 92%
    02:00 +18°C° 0.2 mm 1 mps 648 mmHg 91%
    03:00 +18°C° 0.2 mm 1 mps 647 mmHg 91%
    04:00 +18°C° 0.2 mm 1 mps 647 mmHg 90%
    05:00 +19°C° 0 mm 1 mps 648 mmHg 88%
    06:00 +19°C° 0 mm 1 mps 648 mmHg 86%
    07:00 +21°C° 0 mm 1 mps 649 mmHg 85%
    08:00 +22°C° 0.3 mm 1 mps 650 mmHg 82%
    09:00 +23°C° 0.3 mm 1 mps 650 mmHg 79%
    10:00 +24°C° 0.3 mm 1 mps 650 mmHg 76%
    11:00 +24°C° 0.7 mm 1 mps 650 mmHg 77%
    12:00 +25°C° 0.7 mm 2 mps 649 mmHg 77%
    13:00 +25°C° 0.7 mm 2 mps 648 mmHg 78%
    14:00 +24°C° 0.7 mm 2 mps 648 mmHg 80%
    15:00 +24°C° 0.7 mm 1 mps 647 mmHg 83%
    16:00 +23°C° 0.7 mm 1 mps 647 mmHg 85%
    17:00 +22°C° 0.7 mm 1 mps 647 mmHg 88%
    18:00 +22°C° 0.7 mm 1 mps 647 mmHg 91%
    19:00 +21°C° 0.7 mm 1 mps 648 mmHg 95%
    20:00 +20°C° 0.8 mm 1 mps 648 mmHg 94%
    21:00 +18°C° 0.8 mm 0 mps 649 mmHg 93%
    22:00 +18°C° 0.8 mm 0 mps 649 mmHg 92%
    23:00 +18°C° 0.3 mm 0 mps 649 mmHg 92%

    Tomorrow, 23 November, Saturday

    Time Temperature Precipitation Wind Pressure Humidity
    00:00 +17°C° 0.3 mm 0 mps 648 mmHg 92%
    01:00 +17°C° 0.3 mm 0 mps 648 mmHg 92%
    02:00 +17°C° 0.3 mm 0 mps 648 mmHg 92%
    03:00 +17°C° 0.3 mm 0 mps 648 mmHg 92%
    04:00 +17°C° 0.3 mm 0 mps 647 mmHg 92%
    05:00 +17°C° 0 mm 0 mps 648 mmHg 90%
    06:00 +18°C° 0 mm 0 mps 648 mmHg 88%
    07:00 +18°C° 0 mm 0 mps 649 mmHg 86%
    08:00 +22°C° 0.1 mm 1 mps 649 mmHg 82%
    09:00 +23°C° 0.1 mm 1 mps 650 mmHg 78%
    10:00 +24°C° 0.1 mm 2 mps 650 mmHg 75%
    11:00 +24°C° 0.4 mm 2 mps 649 mmHg 77%
    12:00 +24°C° 0.4 mm 2 mps 649 mmHg 79%
    13:00 +24°C° 0.4 mm 2 mps 648 mmHg 81%
    14:00 +24°C° 0.5 mm 2 mps 648 mmHg 83%
    15:00 +23°C° 0.5 mm 1 mps 647 mmHg 85%
    16:00 +23°C° 0.5 mm 1 mps 647 mmHg 86%
    17:00 +22°C° 0.5 mm 1 mps 647 mmHg 89%
    18:00 +21°C° 0.5 mm 1 mps 647 mmHg 92%
    19:00 +18°C° 0.5 mm 0 mps 648 mmHg 95%
    20:00 +18°C° 0.2 mm 0 mps 648 mmHg 94%
    21:00 +18°C° 0.2 mm 0 mps 648 mmHg 93%
    22:00 +18°C° 0.2 mm 0 mps 649 mmHg 93%
    23:00 +18°C° 0.2 mm 0 mps 649 mmHg 93%

    Day after tomorrow, 24 November, Sunday

    Time Temperature Precipitation Wind Pressure Humidity
    00:00 +18°C° 0.2 mm 0 mps 648 mmHg 93%
    01:00 +18°C° 0.2 mm 0 mps 648 mmHg 93%
    02:00 +18°C° 0.2 mm 0 mps 648 mmHg 93%
    03:00 +17°C° 0.2 mm 0 mps 648 mmHg 93%
    04:00 +17°C° 0.2 mm 0 mps 647 mmHg 93%
    05:00 +18°C° 0.1 mm 0 mps 648 mmHg 91%
    06:00 +18°C° 0.1 mm 0 mps 648 mmHg 90%
    07:00 +18°C° 0.1 mm 0 mps 649 mmHg 89%
    08:00 +19°C° 0.2 mm 0 mps 649 mmHg 87%
    09:00 +23°C° 0.2 mm 1 mps 650 mmHg 84%
    10:00 +24°C° 0.2 mm 1 mps 650 mmHg 82%
    11:00 +24°C° 0.5 mm 2 mps 649 mmHg 81%
    12:00 +24°C° 0.5 mm 2 mps 648 mmHg 81%
    13:00 +25°C° 0.5 mm 2 mps 647 mmHg 80%
    14:00 +24°C° 0.5 mm 2 mps 647 mmHg 82%
    15:00 +24°C° 0.5 mm 2 mps 647 mmHg 84%
    16:00 +23°C° 0.5 mm 1 mps 646 mmHg 87%
    17:00 +22°C° 0.7 mm 1 mps 646 mmHg 89%
    18:00 +22°C° 0.7 mm 1 mps 647 mmHg 92%
    19:00 +19°C° 0.7 mm 0 mps 647 mmHg 94%
    20:00 +18°C° 0.5 mm 0 mps 647 mmHg 94%
    21:00 +18°C° 0.5 mm 0 mps 648 mmHg 94%
    22:00 +18°C° 0.5 mm 0 mps 648 mmHg 93%
    23:00 +18°C° 0.3 mm 0 mps 648 mmHg 92%

    25 November, Monday

    Time Temperature Precipitation Wind Pressure Humidity
    00:00 +17°C° 0.3 mm 0 mps 648 mmHg 91%
    01:00 +17°C° 0.3 mm 0 mps 647 mmHg 90%
    02:00 +17°C° 0.1 mm 0 mps 647 mmHg 90%
    03:00 +17°C° 0.1 mm 0 mps 647 mmHg 90%
    04:00 +17°C° 0.1 mm 0 mps 646 mmHg 90%
    05:00 +17°C° 0 mm 0 mps 647 mmHg 88%
    06:00 +18°C° 0 mm 0 mps 647 mmHg 86%
    07:00 +18°C° 0 mm 0 mps 648 mmHg 85%
    08:00 +22°C° 0 mm 1 mps 648 mmHg 82%
    09:00 +23°C° 0 mm 1 mps 649 mmHg 79%
    10:00 +24°C° 0 mm 1 mps 649 mmHg 77%
    11:00 +25°C° 0.2 mm 2 mps 648 mmHg 77%
    12:00 +25°C° 0.2 mm 2 mps 647 mmHg 77%
    13:00 +25°C° 0.2 mm 2 mps 647 mmHg 76%
    14:00 +25°C° 0.3 mm 2 mps 646 mmHg 79%
    15:00 +24°C° 0.3 mm 2 mps 646 mmHg 82%
    16:00 +24°C° 0.3 mm 2 mps 646 mmHg 85%
    17:00 +23°C° 0.6 mm 1 mps 646 mmHg 89%
    18:00 +22°C° 0.6 mm 1 mps 646 mmHg 92%
    19:00 +21°C° 0.6 mm 1 mps 647 mmHg 95%
    20:00 +21°C° 0.8 mm 1 mps 647 mmHg 94%
    21:00 +20°C° 0.8 mm 1 mps 647 mmHg 92%
    22:00 +20°C° 0.8 mm 1 mps 648 mmHg 91%
    23:00 +20°C° 0.7 mm 1 mps 647 mmHg 90%

    26 November, Tuesday

    Time Temperature Precipitation Wind Pressure Humidity
    00:00 +20°C° 0.7 mm 1 mps 647 mmHg 90%
    01:00 +19°C° 0.7 mm 1 mps 647 mmHg 89%
    02:00 +19°C° 0.3 mm 1 mps 646 mmHg 89%
    03:00 +19°C° 0.3 mm 1 mps 646 mmHg 88%
    04:00 +19°C° 0.3 mm 1 mps 646 mmHg 88%
    05:00 +19°C° 0 mm 1 mps 647 mmHg 87%
    06:00 +20°C° 0 mm 1 mps 648 mmHg 86%
    07:00 +21°C° 0 mm 1 mps 648 mmHg 85%
    08:00 +22°C° 0 mm 1 mps 649 mmHg 80%
    09:00 +24°C° 0 mm 1 mps 649 mmHg 74%
    10:00 +25°C° 0 mm 1 mps 650 mmHg 69%
    11:00 +26°C° 0.3 mm 1 mps 649 mmHg 71%
    12:00 +26°C° 0.3 mm 2 mps 648 mmHg 73%
    13:00 +26°C° 0.3 mm 2 mps 647 mmHg 75%
    14:00 +26°C° 0.7 mm 2 mps 647 mmHg 78%
    15:00 +25°C° 0.7 mm 2 mps 647 mmHg 82%
    16:00 +25°C° 0.7 mm 2 mps 646 mmHg 85%
    17:00 +23°C° 1.1 mm 2 mps 646 mmHg 88%
    18:00 +22°C° 1.1 mm 1 mps 647 mmHg 90%
    19:00 +21°C° 1.1 mm 1 mps 647 mmHg 92%
    20:00 +21°C° 0.3 mm 1 mps 647 mmHg 90%
    21:00 +20°C° 0.3 mm 1 mps 648 mmHg 89%
    22:00 +20°C° 0.3 mm 1 mps 648 mmHg 87%
    23:00 +20°C° 0 mm 1 mps 648 mmHg 87%

    27 November, Wednesday

    Time Temperature Precipitation Wind Pressure Humidity
    00:00 +19°C° 0 mm 1 mps 647 mmHg 86%
    01:00 +18°C° 0 mm 2 mps 647 mmHg 85%
    02:00 +18°C° 0 mm 2 mps 647 mmHg 84%
    03:00 +18°C° 0 mm 2 mps 647 mmHg 84%
    04:00 +18°C° 0 mm 2 mps 647 mmHg 83%
    05:00 +18°C° 0 mm 2 mps 647 mmHg 82%
    06:00 +20°C° 0 mm 1 mps 648 mmHg 82%
    07:00 +21°C° 0 mm 1 mps 648 mmHg 81%
    08:00 +22°C° 0 mm 1 mps 649 mmHg 76%
    09:00 +24°C° 0 mm 1 mps 649 mmHg 71%
    10:00 +25°C° 0 mm 1 mps 650 mmHg 66%
    11:00 +26°C° 0.2 mm 1 mps 649 mmHg 67%
    12:00 +26°C° 0.2 mm 2 mps 649 mmHg 69%
    13:00 +27°C° 0.2 mm 2 mps 648 mmHg 70%
    14:00 +26°C° 0.9 mm 2 mps 648 mmHg 74%
    15:00 +26°C° 0.9 mm 2 mps 647 mmHg 78%
    16:00 +25°C° 0.9 mm 1 mps 647 mmHg 82%
    17:00 +24°C° 1 mm 1 mps 647 mmHg 84%
    18:00 +23°C° 1 mm 1 mps 647 mmHg 87%
    19:00 +21°C° 1 mm 1 mps 648 mmHg 89%
    20:00 +21°C° 0.2 mm 1 mps 648 mmHg 88%
    21:00 +21°C° 0.2 mm 1 mps 648 mmHg 87%
    22:00 +21°C° 0.2 mm 1 mps 649 mmHg 86%
    23:00 +20°C° 0.3 mm 1 mps 648 mmHg 86%
    Show more